Home   Weather   Kolding   Past weeks

Flag for Denmark Past Weather in Kolding, Denmark — Yesterday and Last 2 Weeks

Now
61 °F

Cool.


Feels Like: 61 °F
Forecast: 59 / 66 °F
Wind: 10 mph from Southwest

Location: Vamdrup

Current Time: Aug 17, 2017 at 7:43:45 pm

Latest Report: Aug 17, 2017 at 6:50 pm


Visibility: N/A

Pressure: 29.86 "Hg

Humidity: 94%

Dew Point: 59 °F

Location of KoldingLocation

Past Weather in Kolding — Graph

°F

Kolding Temperature Yesterday

Maximum temperature yesterday: 70 °F (at 1:50 pm)
Minimum temperature yesterday: 52 °F (at 11:50 pm)
Average temperature yesterday: 62 °F

High & Low Weather Summary for the Past Weeks

 TemperatureHumidityPressure
High75 °F (Aug 15, 2:50 pm)100% (Aug 3, 12:50 am)30.24 "Hg (Aug 3, 12:50 am)
Low43 °F (Aug 14, 3:50 am)43% (Aug 14, 6:20 pm)29.59 "Hg (Aug 4, 2:20 am)
Average60 °F83%29.94 "Hg
* Reported Aug 2 6:20 pm — Aug 17 6:20 pm, Kolding. Weather by CustomWeather, © 2017

Note: Actual official high and low records may vary slightly from our data, if they occured in-between our weather recording intervals... More about our weather records

Advertising

Kolding Weather History for the Previous 24 Hours

Scroll right to see more
 ConditionsComfort  
Time TempWeatherWind HumidityBarometerVisibility
6:20 pm
Thu, Aug 17
63 °FMild.13 mph94%29.86 "HgN/A
4:50 pm64 °FSprinkles. Overcast.20 mph94%29.89 "Hg2 mi
4:20 pm68 °FSprinkles. Partly sunny.7 mph88%29.86 "Hg4 mi
2:50 pm70 °FPartly sunny.12 mph78%29.89 "HgN/A
1:50 pm70 °FPartly sunny.16 mph78%29.92 "HgN/A
12:50 pm68 °FPartly sunny.14 mph78%29.95 "HgN/A
11:50 am68 °FPassing clouds.14 mph73%29.95 "HgN/A
10:50 am68 °FSunny.15 mph69%30.01 "Hg10 mi
9:50 am66 °FSunny.13 mph73%30.01 "Hg10 mi
8:50 am63 °FSunny.9 mph88%30.04 "Hg10 mi
7:50 am61 °FSunny.9 mph88%30.04 "Hg10 mi
7:20 am57 °FCool.7 mph94%30.04 "HgN/A
6:50 am57 °FCool.8 mph94%30.07 "HgN/A
6:20 am55 °FCool.6 mph100%30.07 "HgN/A
5:50 am55 °FCool.6 mph94%30.07 "HgN/A
5:20 am54 °FCool.6 mph94%30.07 "HgN/A
4:50 am54 °FCool.5 mph94%30.07 "HgN/A
4:20 am54 °FCool.6 mph94%30.09 "HgN/A
3:50 am55 °FCool.2 mph88%30.09 "HgN/A
3:20 am55 °FCool.5 mph88%30.09 "HgN/A
2:50 am54 °FCool.6 mph94%30.09 "HgN/A
1:50 am52 °FCool.2 mph100%30.12 "HgN/A
1:20 am54 °FCool.3 mph94%30.12 "HgN/A
12:50 am52 °FCool.5 mph94%30.12 "HgN/A
12:20 am52 °FCool.3 mph94%30.12 "HgN/A
11:50 pm
Wed, Aug 16
52 °FCool.2 mph94%30.12 "HgN/A
11:20 pm54 °FCool.2 mph94%30.15 "HgN/A
10:50 pm55 °FCool.1 mph88%30.15 "HgN/A
10:20 pm55 °FCool.3 mph94%30.15 "HgN/A
9:50 pm57 °FCool.2 mph88%30.15 "HgN/A
8:50 pm61 °FCool.5 mph72%30.15 "HgN/A
8:20 pm63 °FMild.6 mph68%30.15 "HgN/A
7:50 pm63 °FMild.6 mph68%30.12 "HgN/A
7:20 pm64 °FMild.8 mph64%30.15 "HgN/A
Weather by CustomWeather, © 2017

See weather overviewHow to use our weather pages